This is the latest recevied weather packets stored in our database for station/object WS2Z. If no packets are shown the sender has not sent any weather packets the latest 10 day(s).
| Time | Temp. | Humidity | Pressure | Rain* | Wind** | Luminosity | Snow |
|---|---|---|---|---|---|---|---|
| 1777935682 | 26.11° C | 72% | 1013.7 hPa | 0 mm | - | 70 W/m² | - |
| 1777935379 | 26.67° C | 73% | 1013.6 hPa | 0 mm | - | 68 W/m² | - |
| 1777935075 | 27.22° C | 71% | 1013.7 hPa | 0 mm | - | 73 W/m² | - |
| 1777934772 | 27.22° C | 71% | 1013.5 hPa | 0 mm | - | 159 W/m² | - |
| 1777934469 | 27.22° C | 71% | 1013.4 hPa | 0 mm | - | 127 W/m² | - |
| 1777934166 | 26.67° C | 72% | 1013.6 hPa | 0 mm | - | 146 W/m² | - |
| 1777933862 | 26.67° C | 72% | 1013.4 hPa | 0 mm | - | 118 W/m² | - |
| 1777933559 | 26.67° C | 71% | 1013.3 hPa | 0 mm | - | 81 W/m² | - |
| 1777933256 | 26.67° C | 72% | 1013.2 hPa | 0 mm | - | 140 W/m² | - |
| 1777932953 | 27.78° C | 70% | 1013.1 hPa | 0 mm | - | 102 W/m² | - |
| 1777932650 | 27.78° C | 70% | 1013.2 hPa | 0 mm | - | 236 W/m² | - |
| 1777932347 | 27.78° C | 70% | 1013.4 hPa | 0 mm | - | 253 W/m² | - |
| 1777932044 | 28.33° C | 69% | 1013.4 hPa | 0 mm | - | 250 W/m² | - |
| 1777931740 | 27.78° C | 72% | 1013.2 hPa | 0 mm | - | 322 W/m² | - |
| 1777931438 | 27.78° C | 72% | 1013.5 hPa | 0 mm | - | 342 W/m² | - |
| 1777931133 | 26.67° C | 76% | 1013.4 hPa | 0 mm | - | 342 W/m² | - |
| 1777930830 | 27.22° C | 76% | 1013.1 hPa | 0 mm | - | 145 W/m² | - |
| 1777930526 | 27.22° C | 75% | 1013.2 hPa | 0 mm | - | 400 W/m² | - |
| 1777930224 | 26.67° C | 75% | 1013.4 hPa | 0 mm | - | 402 W/m² | - |
| 1777929919 | 25.56° C | 77% | 1013.5 hPa | 0 mm | - | 426 W/m² | - |
| 1777929617 | 25.56° C | 78% | 1013.4 hPa | 0 mm | - | 167 W/m² | - |
| 1777929314 | 26.11° C | 77% | 1013.4 hPa | 0 mm | - | 119 W/m² | - |
| 1777929011 | 26.67° C | 75% | 1013.7 hPa | 0 mm | - | 158 W/m² | - |
| 1777928708 | 27.22° C | 73% | 1013.6 hPa | 0 mm | - | 224 W/m² | - |
| 1777928405 | 28.33° C | 70% | 1013.4 hPa | 0 mm | - | 543 W/m² | - |
* Rain latest hour (hover to see other rain measurements)
** Current wind speed in m/s (hover to see current wind gust speed)